weather.gov     
National Weather Service

Terminal Aerodrome Forecast
NWS Homepage
This page is being discontinued on March 12, 2014.
The same data is available at this site. Please update your bookmarks.
Thank you, and we apologize for the inconvenience.
Please send an email to SR-SRH.Webmaster@noaa.gov with any concerns.


Current Version
Previous Version:    01  02  03  04  05  06  07  08  09  10  11  12  13  14  
[Printable]
219
FTUS41 KBTV 282300
TAFBTV
TAF
KBTV 282323Z 2900/2924 34015G25KT 4SM -RA BR OVC010
      TEMPO 2900/2904 1SM +RA BR OVC005
     FM290400 34012KT 6SM -RA BR OVC012
     FM290800 33007KT P6SM OVC020
     FM291500 28008KT P6SM SCT030=


U.S. Dept. of Commerce
NOAA National Weather Service
1325 East West Highway
Silver Spring, MD 20910
E-mail: w-nws.webmaster@noaa.gov
Page last modified: May 16, 2007
NATIONAL WEATHER SERVICE: for Safety, for Work, for Fun - FOR LIFE